Regional Weather Roundup
Issued by NWS State College, PA

Home | Current Version | Previous Version | Text Only | Print | Product List | Glossary On
Versions: 1 2 3 4 5 6 7 8 9 10 11 12 13 14 15 16 17 18 19 20 21 22 23 24 25 26 27 28 29 30 31 32 33 34 35 36 37 38 39 40 41 42 43 44 45 46 47 48 49 50
000
ASUS41 KCTP 191810
RWRCTP

REGIONAL WEATHER ROUNDUP
NATIONAL WEATHER SERVICE STATE COLLEGE PA
100 PM EST THU JAN 19 2017

Note: "fair" indicates few or no clouds below 12,000 feet with no
significant weather and/or obstructions to visibility.

* = STATION THAT DOES NOT REPORT PRECIPITATION /E.G. RAIN...SNOW...ETC/
    THUNDER OR FOG.

PAZ002>004-007>009-013>016-020>023-029>032-191900-
WESTERN PENNSYLVANIA

CITY           SKY/WX    TMP DP  RH WIND       PRES   REMARKS
ERIE           CLOUDY    37  34  89 NW6       30.03F
MEADVILLE      CLOUDY    36  32  85 S6        30.02F
FRANKLIN*        N/A     36  30  80 S5        30.03F
NEW CASTLE     CLOUDY    39  35  86 SW5       30.04F
BEAVER COUNTY  CLOUDY    39  34  81 CALM      30.03F
BUTLER*        CLOUDY    37  34  87 S5        30.05F
PITTSBURGH INT CLOUDY    39  35  86 SE7       30.03F
PITTSBURGH     CLOUDY    40  32  73 SW3       30.02F
INDIANA*       CLOUDY    39  36  87 W7        30.06F
LATROBE        CLOUDY    39  36  87 SW6       30.06F
WASHINGTON CO* CLOUDY    39  34  81 SE5       30.03F
$$

PAZ004>006-010>012-017>019-024>028-033>037-041-042-045-046-049>053-191900-
CENTRAL PENNSYLVANIA

CITY           SKY/WX    TMP DP  RH WIND       PRES   REMARKS
BRADFORD       CLOUDY    33  33 100 VRB3      30.00F FOG
DUBOIS         CLOUDY    36  31  82 SW6       30.01F
CLEARFIELD     CLOUDY    38  34  85 W3        30.03F
JOHNSTOWN      CLOUDY    36  34  92 W5        29.99F
ALTOONA        CLOUDY    42  34  73 N5        30.03F
STATE COLLEGE  CLOUDY    39  34  81 W8        30.04F
WILLIAMSPORT   CLOUDY    45  33  63 W6        30.04F
SELINSGROVE    CLOUDY    45  34  65 VRB5      30.05F
FT INDIANTOWN  MOSUNNY   48  36  61 NW9       30.03F
CAPITAL CITY   CLOUDY    48  33  56 N6        30.04F
HARRISBURG     CLOUDY    47  35  63 NW5       30.04F
YORK           CLOUDY    48  36  63 N5        30.04S
$$

PAZ038>040-043-044-047-048-054-055-060>062-067>071-191900-
EASTERN PENNSYLVANIA

CITY           SKY/WX    TMP DP  RH WIND       PRES   REMARKS
SCRANTON       CLOUDY    40  34  79 NW5       30.01F
MOUNT POCONO   CLOUDY    35  30  82 NW9       29.96F
ALLENTOWN      CLOUDY    44  34  67 NW7       30.03F
QUAKERTOWN*    CLOUDY    41  36  81 N5        30.03F
READING        CLOUDY    49  36  61 N8        30.02F
LANCASTER      CLOUDY    46  36  68 NW7       30.04F
COATESVILLE    CLOUDY    45  34  65 NW6       30.04F
POTTSTOWN      CLOUDY    43  34  70 NW9       30.05F
BLUE BELL      CLOUDY    43  34  70 W5        30.02F
DOYLESTOWN     CLOUDY    45  36  70 NW7       30.01F
WILLOW GROVE   NOT AVBL
NORTH PHILA    CLOUDY    49  36  61 NW8       30.03F
PHILADELPHIA   PTSUNNY   48  35  60 NW12      30.03F
$$



USA.gov is the U.S. government's official web portal to all federal, state and local government web resources and services.